Location: Rometta
(44.2000°N, 10.0500°E)
Time: 22:37:48
(UTC+00:00)

CZ-4C R/B - Pass Details

Date: 20 January 2021
Orbit: 617 x 1385 km, 63.4° (Epoch: 04 March)

Event Time Altitude Azimuth Distance (km) Brightness Sun altitude
Rises 17:07:41 0° 257° (WSW) 3,104 7.4 -9.8°
Reaches altitude 10° 17:10:14 10° 271° (W) 2,279 5.8 -10.2°
Maximum altitude 17:14:37 26° 328° (NNW) 1,591 3.8 -11.0°
Drops below altitude 10° 17:19:45 10° 24° (NNE) 2,694 4.4 -11.8°
Enters shadow 17:21:19 - 31° (NNE) 3,204 4.8 -12.1°
